Total_Precipitation_Accumulation
2.53 3.29 3.98 4.46 5.08 5.88 6.41 6.30 5.69 5.30 4.90 4.43 3.98 4.06 3.98 3.76 3.55 3.37 3.25 3.31 3.23 3.09 3.19 2.87 3.01 2.63 2.70 2.87 3.03 3.43 3.68 3.62 3.59 3.96 4.13 3.74 3.29 3.33 3.23 3.09 3.38 3.36 3.32
2.64 3.42 4.00 4.10 4.08 4.34 4.57 4.07 3.90 3.98 3.70 3.55 3.56 3.56 3.48 3.20 3.06 3.12 3.44 3.10 3.10 3.02 2.82 2.95 2.72 2.67 2.93 2.97 3.11 3.40 3.54 3.48 3.56 3.84 4.31 4.09 4.04 3.48 2.70 2.90 3.06 3.13 3.40
2.72 3.23 3.38 3.34 3.19 3.13 3.10 2.89 2.87 3.29 3.31 3.41 3.48 3.51 3.55 3.38 3.25 3.15 3.40 3.02 2.76 2.71 2.78 2.72 2.79 2.99 2.69 3.00 3.21 3.22 3.49 3.61 3.48 3.49 3.99 4.05 3.99 3.48 2.82 2.66 2.69 2.91 3.29
2.69 2.72 2.29 2.12 2.17 2.24 2.35 2.61 2.76 3.02 2.96 3.16 3.17 3.12 2.92 2.79 2.75 2.78 2.98 3.03 2.72 2.58 2.57 2.69 3.03 3.20 2.92 3.20 2.74 2.94 3.33 3.57 3.50 3.54 3.31 3.18 3.32 3.54 3.40 2.94 2.67 2.77 2.87
1.74 1.69 1.57 1.51 1.67 1.94 2.18 2.52 2.72 2.85 2.81 2.84 2.97 3.20 3.12 3.12 2.99 2.92 3.19 3.21 3.22 2.96 2.64 2.64 2.95 3.16 3.15 3.27 3.10 3.35 3.13 3.09 3.13 3.26 3.28 3.24 3.13 2.91 3.12 3.15 2.95 2.79 2.45
1.10 1.22 1.32 1.50 1.74 1.89 1.97 2.19 2.41 2.72 2.75 2.74 2.82 2.92 3.08 3.35 3.33 3.26 3.09 2.93 3.04 2.97 2.72 2.72 3.06 3.09 3.12 3.30 3.17 3.17 3.04 3.08 3.11 3.00 2.92 3.22 3.23 3.02 3.12 2.87 2.81 2.72 2.20
0.92 1.13 1.30 1.52 1.62 1.67 1.66 1.82 1.93 2.19 2.44 2.53 2.57 2.72 2.95 3.15 3.14 3.22 3.16 3.00 2.75 2.59 2.68 2.81 3.15 3.09 3.09 3.05 3.13 3.10 3.13 3.21 3.26 3.11 2.91 2.91 2.94 2.98 3.03 3.00 2.63 2.46 2.16
0.84 0.96 1.15 1.25 1.33 1.51 1.68 1.84 1.85 1.88 1.97 2.08 2.29 2.47 2.56 2.75 2.80 3.15 3.03 2.93 2.74 2.58 2.65 2.77 2.71 2.70 2.80 2.70 3.06 2.89 2.88 3.00 3.06 2.89 3.28 3.16 2.75 2.91 3.01 3.19 3.41 3.11 2.75
0.92 0.92 0.95 1.16 1.29 1.25 1.31 1.50 1.62 1.74 1.89 2.00 2.15 2.17 2.19 2.32 2.57 2.64 2.49 2.33 2.41 2.50 2.58 2.59 2.66 2.69 2.70 2.75 3.01 2.88 2.92 3.13 2.96 2.95 3.41 3.19 2.79 2.78 2.87 3.12 3.51 3.78 3.34
0.87 0.95 0.96 1.06 1.15 1.19 1.33 1.41 1.53 1.71 1.82 1.88 1.99 1.87 1.93 2.01 2.26 2.37 2.37 2.25 2.15 2.30 2.45 2.52 2.62 2.69 2.65 2.75 2.95 2.76 2.96 3.06 2.97 2.99 3.11 3.04 2.77 2.82 2.90 3.10 3.38 3.72 3.66
0.76 0.90 0.93 1.03 1.08 1.10 1.25 1.43 1.61 1.73 1.68 1.74 1.81 1.89 1.97 2.12 2.19 2.16 2.20 2.20 2.23 2.35 2.46 2.55 2.63 2.66 2.68 2.83 2.94 2.76 2.92 2.90 3.00 2.91 2.88 2.85 3.07 3.12 2.95 3.12 3.27 3.54 3.82
0.84 0.92 0.93 0.96 0.98 1.02 1.13 1.30 1.53 1.68 1.76 1.78 1.92 2.05 2.12 2.21 2.27 2.13 2.19 2.38 2.41 2.47 2.57 2.67 2.75 2.64 2.74 2.90 2.82 2.78 2.85 2.90 2.86 2.96 3.17 3.09 3.28 3.31 3.24 3.42 3.43 3.53 3.83
0.82 0.86 1.00 0.96 0.92 0.97 1.05 1.24 1.56 1.78 2.02 2.15 2.19 2.20 2.13 2.19 2.31 2.35 2.36 2.46 2.56 2.60 2.58 2.56 2.61 2.77 2.99 3.00 2.81 2.80 2.78 2.68 2.58 2.75 3.04 3.33 3.81 3.66 3.50 3.38 3.28 3.31 3.40
0.76 0.89 1.03 1.12 1.20 1.22 1.25 1.38 1.57 1.68 1.89 1.98 2.04 2.19 2.25 2.35 2.51 2.59 2.63 2.64 2.61 2.62 2.68 2.75 2.74 2.79 2.82 2.82 2.87 2.94 2.89 2.80 2.64 2.64 2.75 2.93 3.24 3.42 3.55 3.32 3.21 3.31 3.41
0.94 0.99 1.11 1.26 1.36 1.46 1.45 1.44 1.54 1.63 1.84 2.21 2.43 2.62 2.69 2.72 2.83 2.87 2.83 2.86 2.81 2.72 2.92 2.98 2.94 2.89 2.81 2.60 2.87 3.07 2.95 3.00 2.88 2.76 2.67 2.50 2.63 2.84 3.03 2.85 3.16 3.38 3.33
1.14 1.25 1.31 1.40 1.45 1.54 1.65 1.71 1.75 1.87 2.09 2.54 2.89 3.03 3.10 3.14 3.18 3.24 3.20 3.18 3.10 3.22 3.25 3.10 3.03 2.94 2.66 2.86 2.97 2.99 3.00 3.11 3.05 2.95 2.88 2.65 2.46 2.44 2.59 2.65 2.84 3.09 3.12
1.14 1.22 1.36 1.50 1.58 1.69 1.78 1.93 2.04 2.16 2.33 2.59 2.82 2.92 3.02 3.11 3.26 3.28 3.27 3.24 3.22 3.25 3.26 3.32 3.27 3.12 3.20 3.26 2.94 2.90 2.89 2.94 2.93 3.14 3.26 2.77 2.31 2.56 2.51 2.58 2.58 2.45 2.57
1.16 1.26 1.35 1.58 1.75 1.93 2.15 2.44 2.60 2.73 2.73 2.82 2.97 3.07 3.04 3.08 3.14 3.12 3.01 3.02 3.15 3.18 3.13 3.09 3.04 2.99 2.96 3.10 2.85 2.80 2.66 2.64 2.65 2.72 2.79 2.78 2.57 2.49 2.55 2.51 2.33 2.09 2.07
1.38 1.58 1.79 1.91 2.01 2.09 2.24 2.47 2.76 2.95 2.97 2.86 2.95 3.08 3.18 3.28 3.20 3.11 3.10 3.13 3.19 3.10 3.05 3.03 3.06 2.93 2.89 2.99 2.76 2.74 2.50 2.43 2.34 2.32 2.33 2.34 2.19 2.27 2.34 2.30 2.18 2.05 1.94
1.52 1.71 1.91 2.02 2.03 2.14 2.22 2.33 2.53 2.66 2.75 2.80 2.92 3.05 3.16 3.34 3.46 3.41 3.44 3.39 3.31 3.24 3.23 3.19 3.18 3.06 2.97 3.11 2.85 2.72 2.47 2.40 2.37 2.45 2.42 2.36 2.17 2.17 2.11 2.02 2.03 1.86 1.75
1.46 1.50 1.56 1.72 1.81 1.88 2.01 2.20 2.31 2.30 2.40 2.51 2.57 2.75 3.00 3.24 3.41 3.52 3.52 3.53 3.46 3.36 3.16 3.01 2.97 2.89 2.88 3.04 2.85 2.68 2.41 2.36 2.45 2.51 2.55 2.47 2.37 2.06 1.94 1.85 1.75 1.74 1.91
1.43 1.43 1.52 1.63 1.72 1.88 2.17 2.41 2.40 2.35 2.38 2.50 2.64 2.79 3.02 3.11 3.16 3.31 3.36 3.51 3.49 3.38 3.27 3.05 2.85 2.74 2.58 2.54 2.55 2.37 2.25 2.28 2.34 2.41 2.52 2.55 2.47 2.18 2.06 1.90 1.74 1.82 1.84
1.52 1.48 1.51 1.63 1.84 2.09 2.37 2.62 2.63 2.65 2.69 2.74 2.84 2.94 3.03 3.13 3.22 3.29 3.30 3.32 3.32 3.18 3.06 2.90 2.78 2.68 2.59 2.51 2.33 2.06 2.01 2.07 2.05 2.17 2.55 2.64 2.47 2.23 1.97 1.88 1.89 1.84 1.72
1.57 1.55 1.57 1.68 1.87 1.99 2.11 2.36 2.52 2.59 2.77 2.78 2.72 2.73 2.75 2.82 2.91 3.03 3.06 3.03 2.97 2.91 2.82 2.71 2.64 2.55 2.49 2.39 2.31 2.16 2.02 2.02 1.98 2.00 2.22 2.30 2.22 2.01 1.84 1.77 1.69 1.63 1.65
1.65 1.65 1.70 1.81 1.86 1.88 1.93 2.05 2.25 2.42 2.64 2.78 2.79 2.82 2.83 2.88 2.95 3.01 3.09 2.98 2.82 2.80 2.70 2.57 2.61 2.60 2.43 2.36 2.39 2.22 2.04 2.01 2.10 2.12 2.07 2.11 2.17 2.12 2.03 2.02 1.96 1.92 1.87
1.72 1.79 1.88 1.91 1.92 1.90 1.99 2.10 2.29 2.54 2.81 2.81 2.74 2.77 2.85 2.95 3.04 3.08 3.11 3.16 2.87 2.77 2.63 2.54 2.49 2.41 2.27 2.18 2.04 1.98 1.94 1.89 1.91 1.84 1.82 1.98 2.14 2.25 2.24 2.28 2.25 2.18 2.10